Regional Weather Roundup
Issued by NWS Sioux Falls, SD

Home | Current Version | Previous Version | Text Only | Print | Product List | Glossary On
Versions: 1 2 3 4 5 6 7 8 9 10 11 12 13 14 15 16 17 18 19 20 21 22 23 24 25 26 27 28 29 30 31 32 33 34 35 36 37 38 39 40 41 42 43 44 45 46 47 48 49 50
000
ASUS43 KFSD 251610
RWRFSD

WEATHER ROUNDUP FOR SE SOUTH DAKOTA/SW MINNESOTA/NW IOWA
NATIONAL WEATHER SERVICE SIOUX FALLS SD
1100 AM CDT SUN SEP 25 2016

NOTE: "FAIR" INDICATES FEW OR NO CLOUDS BELOW 12,000 FEET WITH NO
SIGNIFICANT WEATHER AND OR OBSTRUCTIONS TO VISIBILITY.


SDZ038>040-050-052>070-251700-
SOUTHEAST SOUTH DAKOTA

CITY           SKY/WX    TMP DP  RH WIND       PRES   REMARKS
BROOKINGS      CLOUDY    57  50  77 W21G28    29.98R
CHAMBERLAIN    MOSUNNY   64  45  50 NW26G37   30.14R
HURON          CLOUDY    59  47  64 NW21G32   30.04R
MADISON        CLOUDY    55  54  94 W16G31    30.02R
MITCHELL       CLOUDY    59  46  62 NW22G32   30.09R
SIOUX FALLS    CLOUDY    59  49  69 W15G28    30.03R
WINNER           N/A     62  40  44 NW29G40   30.19R
YANKTON        CLOUDY   N/A N/A N/A W28G37    30.08R
$$

MNZ071-072-080-081-089-090-097-098-251700-
SOUTHWEST MINNESOTA

CITY           SKY/WX    TMP DP  RH WIND       PRES   REMARKS
FAIRMONT       MOSUNNY   63  51  65 W17G23    29.98R
JACKSON        MOSUNNY   63  46  55 W21G26    29.99R
LUVERNE        CLOUDY    57  46  67 W20G28    30.02R
MARSHALL       CLOUDY    60  51  72 W24G31    29.94R
MONTEVIDEO     CLOUDY    63  54  72 NW14G23   29.92R
PIPESTONE      CLOUDY    57  50  77 NW18G25   29.99R
REDWOOD FALLS  CLOUDY    61  50  67 W18G26    29.92R
TRACY          CLOUDY    61  53  74 W15G23    29.96R
WINDOM         MOSUNNY   63  52  67 W21G29    29.97R
WORTHINGTON    CLOUDY    59  50  72 W24G30    30.00R
$$

IAZ001>003-012>014-020>022-031-032-NEZ013-014-SDZ071-251700-
NORTHWEST IOWA

CITY           SKY/WX    TMP DP  RH WIND       PRES   REMARKS
CHEROKEE       MOSUNNY   63  51  64 NW16G30   30.06R
DENISON        CLOUDY    61  50  67 W12G18    30.09R
ESTHERVILLE    SUNNY     61  50  67 W17G29    30.00R
LE MARS        CLOUDY    63  48  59 W21G33    30.08R
ORANGE CITY    CLOUDY    61  50  67 W21G30    30.05R
SHELDON        CLOUDY    63  50  63 W21G35    30.02R
SIOUX CITY     PTSUNNY   65  50  58 W22G33    30.07S
SPENCER        MOSUNNY   63  50  62 W23G36    30.02R
STORM LAKE     MOSUNNY   61  50  67 W18G28    30.06R
$$

ABBREVIATIONS USED IN REMARKS
   TC - TEMPERATURE IN CELSIUS
  WCI - WIND CHILL INDEX
   HX - HEAT INDEX
  VSB - VISIBILITY




USA.gov is the U.S. government's official web portal to all federal, state and local government web resources and services.